Vorticity
3 3 5 4 4 5 4 5 4 4 3 3 1 3 5 9 7 6 9 7 0 5 8 7 8 6 8 7 9 6 5 6 5 3 3 4 3 2
6 6 6 5 3 4 4 5 6 4 3 3 3 2 5 8 7 7 8 10 9 6 5 3 3 5 5 3 4 8 7 5 6 5 4 2 4 3
5 6 5 5 5 3 4 6 6 3 3 3 3 2 3 7 8 8 6 8 9 8 7 5 5 2 1 5 4 5 10 7 4 6 6 5 3 3
3 5 6 5 4 3 5 6 5 4 3 3 2 2 2 5 9 8 7 8 8 9 7 5 5 2 4 5 6 6 7 8 8 4 5 6 5 3
4 2 3 3 3 3 6 6 5 4 3 3 4 2 2 4 9 7 8 7 8 9 7 3 3 4 6 6 6 10 8 9 8 9 6 5 6 6
9 4 3 3 2 3 4 5 5 4 3 3 3 3 3 4 10 6 8 6 5 5 4 8 -0 4 6 5 9 8 9 10 9 9 8 8 6 5
11 8 5 3 3 3 3 2 3 3 3 2 3 3 4 7 9 3 7 7 7 4 7 0 4 -3 11 11 11 11 9 9 10 10 8 9 8 8
11 10 6 4 4 5 2 4 3 2 3 4 4 5 3 6 7 8 8 5 9 4 4 -2 4 4 13 8 8 8 9 8 11 8 9 10 9 8
10 11 10 6 5 4 2 5 5 2 4 5 -6 -0 7 11 5 6 11 5 6 3 2 4 2 8 11 7 7 7 8 9 9 8 9 8 9 9
12 12 13 9 7 9 7 2 3 2 4 7 8 12 12 10 10 9 5 5 6 8 4 22 6 5 9 8 7 8 8 10 9 9 9 10 9 9
-6 0 12 15 11 7 8 8 7 5 9 8 9 7 6 6 6 6 8 9 8 3 5 12 -0 11 8 9 7 6 7 9 8 8 7 8 8 8
16 6 0 7 12 13 12 9 9 11 9 13 10 10 8 10 10 10 6 1 11 4 5 7 7 8 8 8 9 8 7 5 9 8 7 7 8 6
25 6 12 8 10 12 11 10 13 11 12 6 8 8 4 -1 1 2 -5 12 15 11 8 9 5 4 6 4 8 7 8 8 5 9 7 7 6 7
43 13 -8 5 9 7 8 10 12 8 2 7 2 6 -2 0 10 9 10 6 3 5 10 6 7 8 12 8 7 8 5 3 4 5 7 4 7 4
22 36 18 12 6 11 6 -1 3 2 -0 -5 -7 -3 7 -14 6 10 0 -3 2 5 3 11 10 13 6 10 6 -8 -0 4 3 6 8 4 9 1
15 7 19 20 33 3 -1 1 -5 -3 -0 -2 -1 -5 6 15 7 -0 5 2 5 6 7 6 4 8 10 11 3 -1 11 11 4 -5 -5 -4 1 -4
7 32 3 14 33 15 32 -1 -2 -8 -2 -4 8 9 5 -4 10 3 -6 4 12 -0 6 24 4 11 6 10 2 10 -2 9 4 12 19 14 12 18
-4 6 23 22 2 7 15 6 19 27 10 18 4 12 -1 0 3 -5 3 2 11 5 10 7 6 13 14 2 14 11 -5 14 2 -0 1 6 9 11
15 8 0 -4 0 -3 8 36 18 -21 12 11 22 18 9 15 -7 7 7 13 5 13 4 7 8 3 7 11 -9 20 10 12 -4 5 1 -2 -3 -2
-6 -10 -9 5 13 14 10 -0 -2 12 11 15 1 28 25 -0 -2 15 7 10 -8 8 -5 21 24 7 17 3 7 7 12 13 1 13 13 2 10 10
1 -7 5 9 14 6 13 17 8 4 4 -4 -18 -8 -3 -7 1 9 1 6 9 12 14 5 12 6 11 8 20 6 9 5 11 15 19 36 38 34
11 7 6 -19 -15 6 11 16 1 8 19 27 29 13 -4 3 17 13 11 10 14 7 1 4 6 13 24 33 35 33 32 19 22 6 -5 -10 -1 12
4 1 11 10 19 -19 17 -11 -14 -0 1 -23 33 18 24 26 12 14 18 15 6 18 9 11 14 13 12 -10 -13 -5 -4 3 1 19 13 13 6 4
Height
5781 5786 5794 5800 5806 5812 5817 5823 5828 5832 5835 5837 5840 5843 5845 5847 5848 5850 5851 5853 5854 5855 5856 5857 5858 5858 5858 5859 5859 5859 5859 5858 5858 5858 5858 5857 5855 5854
5771 5777 5784 5791 5799 5804 5810 5815 5821 5825 5828 5832 5833 5837 5839 5841 5843 5844 5846 5847 5849 5850 5852 5853 5853 5854 5854 5855 5855 5855 5855 5854 5854 5854 5854 5853 5852 5851
5762 5768 5775 5783 5789 5797 5802 5808 5813 5817 5821 5824 5827 5830 5833 5835 5837 5839 5840 5842 5843 5844 5846 5847 5848 5849 5850 5850 5850 5850 5850 5850 5849 5849 5850 5849 5848 5847
5754 5760 5767 5774 5780 5787 5794 5798 5805 5809 5813 5816 5819 5823 5825 5828 5831 5833 5835 5835 5836 5838 5840 5841 5842 5843 5844 5843 5843 5844 5844 5844 5843 5843 5844 5844 5843 5842
5742 5750 5756 5764 5770 5776 5785 5789 5795 5800 5804 5808 5811 5814 5818 5821 5823 5826 5827 5828 5829 5832 5833 5834 5835 5836 5837 5836 5837 5837 5837 5837 5837 5837 5837 5837 5837 5836
5729 5737 5745 5751 5760 5766 5773 5780 5785 5790 5795 5799 5802 5806 5810 5813 5816 5818 5819 5821 5822 5824 5826 5827 5828 5829 5829 5828 5829 5830 5830 5829 5829 5829 5829 5829 5829 5829
5717 5724 5732 5740 5748 5756 5761 5768 5774 5780 5785 5790 5793 5797 5801 5805 5807 5808 5811 5812 5814 5816 5817 5817 5820 5822 5821 5820 5821 5821 5821 5820 5821 5821 5821 5821 5821 5821
5705 5712 5720 5727 5736 5744 5750 5757 5763 5770 5775 5781 5784 5787 5791 5794 5797 5800 5800 5804 5806 5805 5807 5811 5812 5813 5812 5811 5812 5812 5812 5812 5812 5812 5812 5812 5812 5812
5691 5699 5707 5714 5722 5731 5738 5745 5752 5758 5763 5769 5775 5778 5780 5784 5785 5787 5792 5793 5795 5794 5800 5802 5803 5804 5802 5802 5803 5803 5803 5804 5803 5803 5803 5803 5803 5803
5678 5686 5694 5702 5710 5718 5726 5733 5739 5745 5751 5756 5763 5766 5768 5771 5774 5777 5779 5781 5785 5788 5791 5793 5792 5795 5792 5792 5793 5794 5794 5795 5795 5794 5793 5794 5793 5793
5662 5672 5681 5688 5696 5704 5713 5720 5726 5731 5736 5742 5748 5752 5756 5759 5762 5764 5768 5771 5774 5778 5779 5781 5783 5782 5781 5782 5782 5783 5784 5785 5785 5785 5784 5784 5784 5783
5648 5656 5665 5673 5680 5689 5696 5703 5711 5718 5723 5728 5734 5740 5744 5748 5750 5752 5757 5759 5763 5765 5769 5769 5770 5769 5770 5772 5772 5772 5772 5773 5774 5775 5774 5774 5773 5773
5632 5640 5651 5659 5667 5673 5681 5688 5696 5703 5709 5713 5718 5723 5728 5733 5737 5740 5743 5747 5750 5753 5755 5754 5757 5758 5758 5761 5760 5760 5761 5761 5761 5763 5763 5763 5762 5762
5617 5625 5635 5644 5653 5660 5665 5675 5683 5687 5692 5698 5703 5709 5714 5720 5725 5728 5731 5733 5734 5738 5739 5740 5743 5745 5746 5747 5750 5750 5748 5748 5749 5751 5751 5750 5750 5749
5607 5612 5620 5629 5638 5645 5651 5658 5666 5671 5677 5683 5689 5694 5700 5706 5709 5711 5715 5719 5721 5723 5725 5727 5729 5730 5731 5733 5736 5736 5737 5737 5735 5737 5737 5736 5736 5736
5591 5598 5605 5612 5620 5628 5636 5642 5647 5654 5660 5667 5673 5679 5684 5687 5692 5696 5699 5703 5705 5709 5711 5713 5714 5714 5716 5718 5718 5720 5723 5723 5723 5724 5722 5720 5720 5719
5577 5583 5590 5598 5605 5609 5617 5624 5630 5635 5642 5649 5656 5662 5666 5671 5675 5679 5683 5686 5688 5692 5696 5697 5698 5698 5699 5701 5702 5705 5706 5707 5708 5706 5705 5704 5703 5702
5561 5566 5571 5578 5586 5593 5600 5606 5613 5618 5623 5629 5636 5643 5649 5653 5658 5662 5665 5668 5670 5673 5675 5678 5680 5680 5681 5683 5685 5688 5690 5690 5690 5689 5688 5687 5686 5684
5543 5548 5554 5561 5568 5575 5581 5588 5595 5599 5606 5611 5615 5621 5627 5632 5638 5643 5647 5650 5652 5654 5658 5659 5660 5661 5661 5665 5667 5669 5670 5671 5672 5670 5669 5669 5667 5664
5524 5529 5537 5544 5549 5555 5562 5569 5575 5582 5588 5593 5598 5602 5608 5614 5617 5621 5624 5628 5632 5636 5638 5640 5641 5642 5643 5648 5646 5647 5648 5648 5650 5650 5649 5649 5647 5645
5502 5510 5517 5523 5530 5536 5541 5547 5553 5562 5569 5575 5579 5583 5587 5591 5596 5601 5605 5608 5611 5613 5616 5616 5621 5625 5625 5627 5626 5628 5630 5631 5632 5631 5632 5630 5627 5626
5476 5484 5494 5501 5508 5514 5521 5527 5532 5538 5546 5552 5557 5563 5566 5571 5575 5580 5584 5588 5592 5594 5596 5598 5601 5604 5605 5606 5608 5608 5610 5612 5613 5613 5612 5611 5610 5608
5451 5460 5469 5477 5484 5492 5498 5504 5511 5516 5523 5528 5534 5539 5545 5550 5555 5559 5563 5568 5571 5574 5575 5577 5580 5583 5585 5588 5589 5589 5591 5591 5592 5592 5592 5592 5591 5590